Location: Ch�ze
(42.9000°N, 0.0333°W)
Time: 00:15:01
(UTC+00:00)

ISS - Pass Details

Date: 24 January 2021
Orbit: 417 x 422 km, 51.6° (Epoch: 25 February)

Event Time Altitude Azimuth Distance (km) Brightness Sun altitude
Rises 19:14:51 0° 287° (WNW) 2,376 1.2 -24.1°
Reaches altitude 10° 19:17:22 10° 305° (NW) 1,513 -0.3 -24.6°
Enters shadow 19:18:50 17° 329° (NNW) 1,165 -1.2 -24.8°
